Regional Weather Roundup
Issued by NWS Bismarck, ND

Home | Current Version | Previous Version | Text Only | Print | Product List | Glossary On
Versions: 1 2 3 4 5 6 7 8 9 10 11 12 13 14 15 16 17 18 19 20 21 22 23 24 25 26 27 28 29 30 31 32 33 34 35 36 37 38 39 40 41 42 43 44 45 46 47 48 49 50
000
ASUS43 KBIS 281810
RWRBIS

NWR BROADCAST TEXT
NATIONAL WEATHER SERVICE BISMARCK ND
100 PM CDT TUE APR 28 2015

NOTE: "FAIR" INDICATES FEW OR NO CLOUDS BELOW 12,000 FEET WITH NO
SIGNIFICANT WEATHER AND/OR OBSTRUCTIONS TO VISIBILITY.


CITY           SKY/WX    TMP DP  RH WIND       PRES   REMARKS
WILLISTON      SUNNY     62  33  33 S8        30.24F
MINOT          SUNNY     63  34  33 SW10      30.23F
MINOT AFB      SUNNY     63  37  37 W8        30.22F
BISMARCK       SUNNY     62  33  33 NW6       30.28F
DICKINSON      SUNNY     57  34  41 S6        30.25F
GARRISON         N/A     61  37  41 SW9       30.25F
HETTINGER ARPT SUNNY     56  36  47 SE8       30.29F
JAMESTOWN      SUNNY     59  36  42 VRB3      30.24F
BEACH          FAIR      57  37  47 S14G22    30.26F
CARRINGTON     FAIR      61  34  36 S3        30.26F
CROSBY         FAIR      63  34  34 SW12G21   30.23F
HARVEY           N/A    N/A N/A N/A MISG        N/A
HAZEN          FAIR      59  32  36 W6        30.27F
LINTON         FAIR      57  39  51 CALM      30.27F
MANDAN         FAIR      59  34  38 CALM      30.28F
OAKES            N/A     59  37  44 N6        30.26F
STANLEY        FAIR      61  36  39 SW9       30.25F
WATFORD CITY   FAIR      59  32  36 S9        30.23F
$$

CITY           SKY/WX    TMP DP  RH WIND       PRES   REMARKS
GRAND FORKS    MOSUNNY   59  39  47 NW5       30.25F
GRAND FORKS AF SUNNY     55  53  93 VRB3      30.24F
DEVILS LAKE    SUNNY     61  32  33 NW8       30.24F
FARGO          MOSUNNY   60  37  42 N15       30.25F
CANDO          FAIR      63  28  27 N7        30.24F
CAVALIER       FAIR      57  37  47 SE3       30.24F
GRAFTON        FAIR      57  39  51 W3        30.26F
GWINNER        CLEAR     61  36  39 NE14      30.26F
LANGDON        FAIR      63  28  27 NW5G12    30.24F
WALHALLA       FAIR      59  36  41 CALM      30.24F
$$

CITY           SKY/WX    TMP DP  RH WIND       PRES   REMARKS
ABERDEEN       MOSUNNY   61  33  35 N10       30.26F
MOBRIDGE       SUNNY     60  35  39 E3        30.26F
BUFFALO          N/A     58  37  45 MISG      30.21F
RAPID CITY     MOSUNNY   56  39  53 VRB6      30.29F
GLASGOW        SUNNY     62  37  39 MISG      30.18F
SIDNEY         SUNNY     61  36  39 S10G20    30.24F
WOLF POINT     SUNNY     64  32  30 S8        30.21F
GLENDIVE       SUNNY     57  37  47 S14G21    30.25F
MILES CITY     MOSUNNY   59  36  42 MISG      30.21F
BAKER          SUNNY     56  37  49 SE13      30.26F
$$

CITY           SKY/WX    TMP DP  RH WIND       PRES   REMARKS
BILLINGS       MOSUNNY   61  36  39 SW3       30.18F
GREAT FALLS    SUNNY     66  32  28 S8        30.10F
REGINA         PTSUNNY   68  34  28 SW14G23   30.14F
ESTEVAN        PTSUNNY   63  34  34 SW12G20   30.22F
$$



USA.gov is the U.S. government's official web portal to all federal, state and local government web resources and services.